Погода в Нижнеангарске

Россия / Республика Бурятия     55°47′19″N   109°34′44″E
темп.,
°C
ветер,
м/с
пор.,
м/с
влажн.,
%
обл.,
%
осадки,
мм/ч
давл.,
гПа
погр.,
м
20 июня, вс
вс2023:00+9всв017880 0.0 100512
02:00+8ююз018399 0.0 100511
05:00+8вюв1183100 0.0 100710
08:00+10в127761 0.0 1008205
11:00+12ю22688 0.0 1007471
14:00+12ююз24697 0.0 1007535
17:00+13св117194 0.1 1006229
20:00+13зюз2268100 0.1 100621
21 июня, пн
пн2123:00+12з006970 0.0 100611
02:00+11всв118194 0.3 100710
05:00+11ссв338298 0.3 100818
08:00+13в127449 0.3 1007305
11:00+13ю237454 0.3 1008421
14:00+13юз128083 2.4 1008318
17:00+14ююз1276100 1.4 1006316
20:00+13з1177100 1.6 100611
22 июня, вт
вт2223:00+13с22765 0.0 100615
02:00+12ссз33735 0.0 100613
05:00+13с336844 0.0 100612
08:00+14ссз0164100 0.0 1007134
11:00+16ю1261100 0.0 1007417
14:00+11ююз237563 0.1 1010361
17:00+10вюв117757 0.1 1010163
20:00+11в008191 0.1 101052
23 июня, ср
ср2323:00+9юз118999 0.0 101117
02:00+8юв0188100 0.0 101110
05:00+9ссз118690 0.0 101010
08:00+10ююз1177100 0.1 1011131
11:00+13ююз227189 0.0 1009335
14:00+12ююз2371100 0.1 1010284
17:00+13вюв117331 0.1 1009110
20:00+14юз2273100 0.3 100815
24 июня, чт
чт2423:00+12сз117952 0.0 100812
02:00+12ссз1180100 0.0 100814
05:00+13ссз117819 0.0 100718
08:00+15в127055 0.0 1006213
11:00+16ю117042 0.0 1005383
14:00+14ююз336957 0.1 1005395
17:00+16ю337284 0.6 1005227
20:00+13св468885 1.2 1005104